Flag for Finland Weather past 2 weeks in Kokkola, Finland

Now
39 °F

Light rain. Cloudy.


Feels Like: 32 °F
Forecast: 35 / 49 °F
Wind: 10 mph from Southeast

Location: Kruunupyy

Current Time: Apr 26, 2015 at 7:41:25 PM

Latest Report: Apr 26, 2015 at 6:50 PM


Visibility: N/A

Pressure: 29.56 "Hg

Humidity: 93%

Dew point: 37 °F

Location of KokkolaLocation

Historic Weather in Kokkola — Graph

°F

Kokkola temperature yesterday

Maximum temperature yesterday: 45 °F (at 1:50 PM)
Minimum temperature yesterday: 23 °F (at 3:50 AM)
Average temperature yesterday: 34 °F

Past Weeks' High & Low Weather Summary

 TemperatureHumidityPressure
High59 °F (Apr 12, 3:50 PM)100% (Apr 12, 4:50 AM)30.12 "Hg (Apr 12, 4:50 AM)
Low23 °F (Apr 25, 3:50 AM)35% (Apr 22, 3:20 PM)29.03 "Hg (Apr 23, 6:50 AM)
Average38 °F80%29.67 "Hg
* Reported Apr 11 6:20 PM — Apr 26 6:20 PM, Kokkola, Weather by CustomWeather, © 2015

Note: Actual official high and low records may vary slightly from our data, if they occured in-between our weather recording intervals... More about our weather records

Advertising

Kokkola weather history for previous 24 hours

 ConditionsComfort  
Time TempWeatherWind HumidityBarometerVisibility
6:20 PM
Sun, Apr 26
39 °FLight rain. Mostly cloudy.8 mph100%29.59 "Hg5 mi
5:50 PM39 °FLight rain. Cloudy.9 mph93%29.59 "Hg5 mi
5:20 PM39 °FLight rain. Broken clouds.9 mph93%29.59 "HgN/A
4:50 PM39 °FLight rain. Cloudy.14 mph93%29.59 "HgN/A
4:20 PM39 °FLight rain. Partly sunny.13 mph93%29.59 "HgN/A
3:50 PM39 °FLight rain. Cloudy.12 mph93%29.59 "HgN/A
3:20 PM41 °FLight rain. Broken clouds.14 mph87%29.59 "HgN/A
2:50 PM41 °FLight rain. Cloudy.10 mph93%29.59 "HgN/A
2:20 PM41 °FLight rain. Partly sunny.13 mph93%29.59 "HgN/A
1:50 PM41 °FLight rain. Partly sunny.14 mph87%29.59 "HgN/A
1:20 PM41 °FLight rain. Partly sunny.16 mph87%29.62 "HgN/A
12:50 PM43 °FLight rain. Broken clouds.16 mph81%29.62 "HgN/A
12:20 PM43 °FLight rain. Partly sunny.14 mph81%29.62 "HgN/A
11:50 AM43 °FMostly cloudy.17 mph76%29.62 "HgN/A
11:20 AM45 °FBroken clouds.20 mph71%29.62 "HgN/A
10:50 AM45 °FBroken clouds.16 mph66%29.62 "HgN/A
10:20 AM45 °FBroken clouds.13 mph66%29.62 "HgN/A
9:50 AM45 °FPassing clouds.12 mph66%29.65 "HgN/A
9:20 AM45 °FPassing clouds.12 mph66%29.65 "HgN/A
8:50 AM43 °FPassing clouds.10 mph66%29.65 "HgN/A
8:20 AM41 °FPassing clouds.8 mph70%29.65 "HgN/A
7:50 AM39 °FSunny.7 mph70%29.68 "Hg10 mi
7:20 AM39 °FSunny.8 mph65%29.68 "Hg10 mi
6:50 AM37 °FSunny.6 mph70%29.68 "Hg10 mi
6:20 AM37 °FClear.7 mph70%29.68 "Hg10 mi
5:50 AM36 °FClear.7 mph70%29.68 "Hg10 mi
5:20 AM36 °FClear.7 mph70%29.68 "Hg10 mi
4:50 AM36 °FClear.7 mph70%29.71 "Hg10 mi
4:20 AM36 °FClear.6 mph65%29.71 "Hg10 mi
3:50 AM36 °FPassing clouds.6 mph65%29.71 "HgN/A
3:20 AM36 °FClear.6 mph65%29.71 "Hg10 mi
2:50 AM36 °FPassing clouds.5 mph65%29.74 "HgN/A
2:20 AM34 °FClear.6 mph70%29.74 "Hg10 mi
1:50 AM34 °FClear.6 mph70%29.74 "Hg10 mi
1:20 AM32 °FClear.6 mph75%29.77 "Hg10 mi
12:20 AM34 °FClear.6 mph70%29.77 "Hg10 mi
11:50 PM
Sat, Apr 25
34 °FClear.6 mph70%29.77 "Hg10 mi
11:20 PM34 °FClear.6 mph75%29.77 "Hg10 mi
10:50 PM36 °FClear.6 mph70%29.80 "Hg10 mi
10:20 PM36 °FSunny.7 mph70%29.80 "Hg10 mi
9:50 PM36 °FSunny.7 mph70%29.80 "Hg10 mi
9:20 PM37 °FSunny.6 mph65%29.80 "Hg10 mi
8:50 PM39 °FSunny.7 mph61%29.80 "Hg10 mi
8:20 PM41 °FSunny.8 mph57%29.80 "Hg10 mi
7:50 PM41 °FPassing clouds.8 mph57%29.80 "HgN/A
7:20 PM41 °FPassing clouds.8 mph57%29.80 "HgN/A
Weather by CustomWeather, © 2015

See weather overviewHow to use our weather pages